Location: Carrer del Canonge
(41.4901°N, 2.2931°E)
Time: 13:12:03
(UTC+00:00)

MetOp-A - Pass Details

Date: 18 September 2020
Orbit: 820 x 821 km, 98.5° (Epoch: 29 October)

Event Time Altitude Azimuth Distance (km) Brightness Sun altitude
Exits shadow 20:03:46 33° 182° (S) 1,353 5.0 -24.2°
Maximum altitude 20:06:12 70° 258° (WSW) 873 4.3 -24.6°
Drops below altitude 10° 20:11:34 10° 342° (NNW) 2,426 7.1 -25.5°
Sets 20:13:56 0° 345° (NNW) 3,363 7.9 -25.9°
